Subic Bay International Airport
RPLB : now visible

Airfield :











YOU CAN JOIN US ON...

 
LOGIN :

Register | Disclaimer

   EN    FR    IT 

 









Legend :    VFR   Marginal VFR   IFR   Intensive IFR   Very Intensive IFR
Visi :
Ceiling :
>= 8 km
>= 3000ft
5 to 8 km
1000 to 3000 ft
1500m to 5 km
500 to 1000 ft
800 to 1500m
200 to 500 ft
< 800m
< 200 ft
Symbols :   Thunderstorms  Fog  Heavy snow  Heavy precipitations  Wind > 20 kt






- Airport Elevation : 64 ft
- IATA code : SFS


RPLB - Subic Bay International

CURRENT METAR :
  • 070300Z 17007KT 080V230 9999 FEW020 SCT300 34/25 Q1009 NOSIG RMK A2980

EXPIRED METARs :
  • 070200Z 09007KT 020V130 9999 FEW020 SCT300 26/25 Q1010 NOSIG RMK A2983
  • 070100Z 09011KT 9999 FEW020 SCT300 32/25 Q1010 NOSIG RMK A2983

TAF TAF RPLB
Valid from the 07 at 00:00 until the 08 at 00:00 UTC


062300Z 0700/0724 07008KT 9999 FEW020 TX34/0706Z TN26/0721Z
TEMPO 0700/0706 23011KT SCT020
RPHI FIR / Asia



MET'MAP, your aeronautical weather chart ! - Copyright ORBIFLY December 2007 - Disclaimer

ORBIFLY MET'MAP TEAM :

Programming & Development : Alexandra Zaïnal
Concept & original design : Baudouin d'Aumeries
Assistance for programming : Marc-Olivier Méhu
Technical & hardware support : Manuel Goepfert

Contact : metmap@orbifly.com




SOURCES & CREDITS :

   NOAA       Earth
Advisory